Regional Weather Roundup
Issued by NWS Jackson, KY

Home | Current Version | Previous Version | Text Only | Print | Product List | Glossary On
Versions: 1 2 3 4 5 6 7 8 9 10 11 12 13 14 15 16 17 18 19 20 21 22 23 24 25 26 27
000
ASUS43 KJKL 220210
RWRJKL

EAST KENTUCKY HOURLY WEATHER ROUNDUP
NATIONAL WEATHER SERVICE JACKSON KY
900 PM EST TUE FEB 21 2017

NOTE: "FAIR" INDICATES FEW OR NO CLOUDS BELOW 12,000 FEET WITH
NO SIGNIFICANT WEATHER AND/OR OBSTRUCTIONS TO VISIBILITY.

* THESE REPORTS ARE NOT UNDER NWS QUALITY CONTROL AND MAY NOT
  REPORT WEATHER SUCH AS PRECIPITATION AND FOG.

KYZ079-080-083-085-087-088-110-112-115-119-120-220300
...EASTERN KENTUCKY...

CITY           SKY/WX    TMP DP  RH WIND       PRES   REMARKS
JACKSON        LGT RAIN  66  44  45 W5        30.00S
LONDON         CLOUDY    61  50  67 W6        30.00S
SOMERSET*      RAIN      55  54  94 CALM      30.02S
MONTICELLO*    CLOUDY    58  54  86 VRB6      30.02S
WILLIAMSBURG*  CLOUDY    57  55  94 CALM      30.00S
MIDDLESBORO*   DRIZZLE   60  49  67 CALM      30.01S
HARLAN APT*    CLOUDY    63  41  45 CALM      30.02R
PIKE CO APT*   CLOUDY    65  39  37 CALM      30.01S
BIG SANDY APT* CLOUDY    65  40  39 CALM      30.00S
MOREHEAD APT*  CLOUDY    63  50  63 N6        30.02S
ASHLAND*       CLOUDY    57  48  72 NW6       29.97S
$$

KYZ035-036-041-042-044-050-067-078-099-220300
...CENTRAL KENTUCKY...

CITY           SKY/WX    TMP DP  RH WIND       PRES   REMARKS
MT STERLING*   CLOUDY    63  50  63 SW6       30.01S
FLEMING/MASON* LGT RAIN  57  55  91 N5        30.02S
DANVILLE*      CLOUDY    57  54  88 SW7       30.01S
LEXINGTON      LGT RAIN  61  53  75 SW8       29.99S
FRANKFORT      CLOUDY    60  53  77 SW9       29.98R
LOUISVILLE     CLOUDY    63  53  70 SE12      29.97S
LEBANON*         N/A     59  55  88 SE7       29.99S
GLASGOW*       DRIZZLE   58  53  81 SE5       29.97S
BOWLING GREEN  LGT RAIN  60  55  83 SE8       29.96S
$$

KYZ091>093-OHZ055-061-077-WVZ005-015-034-035-042-220300
...SOUTHERN OHIO/WEST VIRGINIA...

CITY           SKY/WX    TMP DP  RH WIND       PRES   REMARKS
COVINGTON      LGT RAIN  56  55  97 SE3       29.99S FOG
COLUMBUS       CLOUDY    59  51  75 CALM      29.97S
DAYTON         LGT RAIN  58  51  78 S13       29.98S
WILMINGTON     LGT RAIN  53  52  96 CALM      30.00S FOG
HUNTINGTON     CLOUDY    66  41  40 NE6       29.98S
CHARLESTON     CLOUDY    63  40  42 E3        29.99S
PINEVILLE*     CLOUDY    61  41  48 MISG      30.09R
BECKLEY        CLOUDY    55  39  54 SE9       30.07R
BLUEFIELD      CLOUDY    51  39  63 S9G18     30.08F
LOGAN CO APT*  CLOUDY    64  36  34 CALM      30.01R
$$

VAZ002-007-008-TNZ017-027-036-066-071-220300
...SOUTHWEST VIRGINIA/EAST TENNESSEE...

CITY           SKY/WX    TMP DP  RH WIND       PRES   REMARKS
WISE*          CLOUDY    59  41  51 CALM      30.07S
JONESVILLE*      N/A    N/A N/A N/A MISG        N/A
ABINGDON*      CLOUDY    59  44  56 SE3       30.07S
BRISTOL        CLOUDY    59  44  57 CALM      30.05S
MORRISTOWN*    MOCLDY    61  46  59 CALM      29.99F
SEVIERVILLE*   MOCLDY    57  46  67 CALM      29.98F
KNOXVILLE      CLOUDY    62  48  60 N6        29.98F
LAFOLLETTE*    CLOUDY    57  54  88 CALM      30.02S
OAK RIDGE      CLOUDY    60  51  72 CALM      30.00F
CROSSVILLE     CLOUDY    54  52  93 CALM      30.01S
NASHVILLE      LGT RAIN  59  55  87 E6        29.95F
$$

...KEY TO REMARKS...
VSB - VISIBILITY IN MILES
WCI - WIND CHILL INDEX
HX  - HEAT INDEX

$$




USA.gov is the U.S. government's official web portal to all federal, state and local government web resources and services.